This is the latest recevied weather packets stored in our database for station/object FRA001-13. If no packets are shown the sender has not sent any weather packets the latest 1 day(s).
| Time | Temp. | Humidity | Pressure | Rain* | Wind** | Luminosity | Snow |
|---|---|---|---|---|---|---|---|
| 1778152203 | 17.78° C | 64% | 1012.7 hPa | 0 mm | - | 788 W/m² | - |
| 1778151903 | 17.78° C | 62% | 1012.9 hPa | 0 mm | - | 778 W/m² | - |
| 1778151603 | 17.22° C | 66% | 1012.8 hPa | 0 mm | - | 761 W/m² | - |
| 1778151303 | 17.78° C | 69% | 1012.7 hPa | 0 mm | - | 744 W/m² | - |
| 1778151003 | 17.78° C | 69% | 1012.8 hPa | 0 mm | - | 752 W/m² | - |
| 1778150703 | 17.22° C | 68% | 1013 hPa | 0 mm | - | 763 W/m² | - |
| 1778150403 | 16.67° C | 67% | 1012.9 hPa | 0 mm | - | 762 W/m² | - |
| 1778150104 | 16.67° C | 65% | 1013 hPa | 0 mm | - | 759 W/m² | - |
| 1778149803 | 16.67° C | 65% | 1012.9 hPa | 0 mm | - | 760 W/m² | - |
| 1778149505 | 17.22° C | 67% | 1013.2 hPa | 0 mm | - | 750 W/m² | - |
| 1778149204 | 16.67° C | 69% | 1013.1 hPa | 0 mm | - | 729 W/m² | - |
| 1778148903 | 16.11° C | 70% | 1013.1 hPa | 0 mm | - | 741 W/m² | - |
| 1778148603 | 16.67° C | 67% | 1013 hPa | 0 mm | - | 711 W/m² | - |
| 1778148303 | 16.67° C | 68% | 1013.4 hPa | 0 mm | - | 700 W/m² | - |
| 1778148003 | 16.11° C | 69% | 1013.2 hPa | 0 mm | - | 699 W/m² | - |
| 1778147704 | 16.67° C | 67% | 1013.2 hPa | 0 mm | - | 646 W/m² | - |
| 1778147403 | 16.67° C | 67% | 1013.2 hPa | 0 mm | - | 679 W/m² | - |
| 1778147104 | 16.11° C | 70% | 1013.3 hPa | 0 mm | - | 686 W/m² | - |
| 1778146804 | 15.56° C | 68% | 1013.2 hPa | 0 mm | - | 697 W/m² | - |
| 1778146503 | 15.56° C | 69% | 1013.1 hPa | 0 mm | - | 577 W/m² | - |
| 1778146203 | 15.56° C | 72% | 1013.2 hPa | 0 mm | - | 606 W/m² | - |
| 1778145903 | 15° C | 74% | 1013.4 hPa | 0 mm | - | 642 W/m² | - |
| 1778145603 | 15.56° C | 74% | 1013.4 hPa | 0 mm | - | 606 W/m² | - |
| 1778145303 | 14.44° C | 75% | 1013.4 hPa | 0 mm | - | 595 W/m² | - |
| 1778145003 | 15° C | 76% | 1013.3 hPa | 0 mm | - | 583 W/m² | - |
* Rain latest hour (hover to see other rain measurements)
** Current wind speed in m/s (hover to see current wind gust speed)